TIME,DELAY(SENSOR),PRES,OXYGEN,RAWTEMP,T(OPTODE),TCPHASE,FLUOR,BETA(BETA700),BETA(BETA412),BETA(BETA440),CDOM,C(CSC),ED(ED412.20),ED(ED444.00),ED(ED489.60),ED(ED554.30),LU(LU412.10),LU(LU443.90),LU(LU489.70),LU(LU554.70),COMP,TILTX,TILTY,CHECK
1345951364,5808,923.1099853515625000,35.1113281250000000,556.9033813476562000,4.5818247795104980,56.2307090759277340,56,101,101,77,82,15566,0,0,0,0,2147124160,2147778432,2147576621,2147574208,189,3,13,56936
1345954960,5811,990.4000244140625000,37.8247718811035160,561.6129760742188000,4.4358940124511720,55.8546409606933600,55,99,100,78,82,15562,0,0,0,0,2147123693,2147776219,2147572507,2147572032,632,3,13,41895
1345958560,5809,1002.7199707031250000,38.2940292358398440,563.4044799804688000,4.3803348541259770,55.8025016784668000,54,100,100,77,82,15566,0,0,0,0,2147122121,2147779565,2147568722,2147571108,3257,3,13,20138
1345962160,5809,1003.2899780273438000,37.1713409423828100,564.2720947265625000,4.3534197807312010,55.9806404113769500,56,100,100,79,83,15537,0,0,0,0,2147120438,2147773110,2147574637,2147571163,82,3,13,37341
1345965760,5810,1004.5499877929688000,36.7926406860351560,566.1956787109375000,4.2937221527099610,56.0636901855468750,55,98,101,78,83,15539,0,0,0,0,2147123154,2147775323,2147575652,2147573741,282,3,13,32641
1345969360,5809,1008.7700195312500000,36.8671607971191400,564.7379760742188000,4.3389630317687990,56.0384788513183600,55,100,101,78,83,15546,0,0,0,0,2147123547,2147773824,2147571547,2147568182,331,3,13,17522
1345972960,5810,1011.2600097656250000,36.5458717346191400,566.1823120117188000,4.2941379547119140,56.1022109985351560,56,98,101,79,84,15546,0,0,0,0,2147121801,2147773083,2147573714,2147571254,2882,3,13,13126
1345976560,5810,1014.4500122070312000,36.0886306762695300,566.6749267578125000,4.2788429260253910,56.1790885925293000,55,97,101,78,82,15547,0,0,0,0,2147117321,2147770706,2147573732,2147567213,136,3,13,905
1345980160,5812,1015.4400024414062000,36.4086799621582000,566.5703735351562000,4.2820868492126465,56.1252098083496100,55,99,100,77,83,15546,0,0,0,0,2147126610,2147778212,2147578550,2147569362,26,3,13,12780
1345983760,5809,1015.8400268554688000,35.7504615783691400,566.4364013671875000,4.2862467765808105,56.2291603088378900,55,99,101,78,83,15545,0,0,0,0,2147120329,2147776804,2147572928,2147572242,3475,3,13,10393
1345987360,5810,1013.8400268554688000,35.2231788635253900,566.5109863281250000,4.2839298248291020,56.3110084533691400,56,98,101,78,83,15547,0,0,0,0,2147121243,2147772800,2147571602,2147568859,56,3,12,52343
1345990960,5811,1016.0100097656250000,35.6889190673828100,566.6030883789062000,4.2810730934143070,56.2425308227539060,56,98,101,78,82,15545,0,0,0,0,2147121398,2147778221,2147575588,2147567954,3342,3,13,16587
1345994560,5810,1018.7800292968750000,35.5108718872070300,566.3787841796875000,4.2880339622497560,56.2644004821777340,55,97,101,77,82,15544,0,0,0,0,2147122294,2147773897,2147574710,2147572306,3250,3,13,16385
1345998160,5809,1022.5000000000000000,36.0384216308593750,566.3928833007812000,4.2875962257385250,56.1846618652343750,54,98,102,79,83,15540,0,0,0,0,2147120475,2147772973,2147571373,2147572196,6,3,13,38313
1346001760,5809,1020.1300048828125000,35.2773399353027340,566.3615722656250000,4.2885718345642090,56.3040809631347660,55,97,100,79,84,15544,0,0,0,0,2147123629,2147772004,2147571949,2147572068,91,3,12,89
1346005360,5809,1022.1099853515625000,36.6337013244628900,566.4774169921875000,4.2849750518798830,56.0905494689941400,55,98,102,77,83,15540,0,0,0,0,2147121243,2147777280,2147578578,2147568896,192,3,13,4376
1346008960,5809,1022.6199951171875000,35.4648208618164060,566.3905029296875000,4.2876739501953125,56.2734413146972660,56,102,100,77,83,15540,0,0,0,0,2147120731,2147768768,2147572013,2147571492,194,3,13,23502
1346012560,5811,1019.4699707031250000,35.8292617797851560,566.4240722656250000,4.2866291999816895,56.2124786376953100,55,100,100,78,84,15538,0,0,0,0,2147119716,2147776228,2147574381,2147570724,249,3,12,9187
1346016160,5808,1021.6900024414062000,37.1843795776367200,566.4874267578125000,4.2846641540527340,56.0081901550293000,56,102,101,79,84,15540,0,0,0,0,2147123702,2147774537,2147574189,2147573156,178,3,13,53470
1346019760,5809,1020.0700073242188000,37.6652297973632800,566.8239135742188000,4.2742180824279785,55.9366912841796900,54,97,101,78,84,15541,0,0,0,0,2147121161,2147769718,2147578093,2147572160,3293,3,13,7979
1346023360,5810,1023.2700195312500000,37.1603088378906250,566.5349731445312000,4.2831859588623050,56.0103912353515600,56,102,100,78,83,15542,0,0,0,0,2147123355,2147769097,2147569517,2147570852,28,3,13,9404
1346026960,5811,1017.9299926757812000,36.9601211547851560,566.7659912109375000,4.2760162353515625,56.0422096252441400,55,99,101,78,84,15534,0,0,0,0,2147121133,2147775222,2147573430,2147570048,252,3,13,39255
1346030560,5809,1027.0100097656250000,37.1565017700195300,566.4760131835938000,4.2850208282470700,56.0063591003418000,55,98,100,78,83,15538,0,0,0,0,2147121728,2147771108,2147572836,2147571282,3214,3,13,38669
1346034160,5809,1022.9799804687500000,36.4160308837890600,566.6195068359375000,4.2805628776550290,56.1278915405273440,55,99,101,78,83,15537,0,0,0,0,2147122313,2147769737,2147577563,2147569590,3193,3,13,18558
1346037760,5809,1016.8800048828125000,37.1814117431640600,566.8549194335938000,4.2732558250427250,56.0119285583496100,55,98,101,78,81,15535,0,0,0,0,2147119542,2147776694,2147574107,2147569270,383,3,13,27537
1346041360,5810,1018.3800048828125000,38.5128097534179700,568.1422729492188000,4.2332739830017090,55.8239288330078100,55,99,101,78,84,15538,0,0,0,0,2147120630,2147775643,2147577344,2147570541,607,3,13,18424
1346044960,5810,1020.1799926757812000,38.9133682250976560,567.0947265625000000,4.2658081054687500,55.7462806701660160,55,102,101,77,82,15537,0,0,0,0,2147120347,2147771657,2147576192,2147573412,67,3,13,54629
1346048560,5812,1026.2800292968750000,38.9869995117187500,566.8526000976562000,4.2733249664306640,55.7326011657714840,55,98,100,78,83,15533,0,0,0,0,2147121170,2147771081,2147573056,2147569398,3484,3,13,22084
1346052160,5810,1036.1099853515625000,36.5456008911132800,566.5374145507812000,4.2831120491027830,56.1070289611816400,55,98,102,78,84,15536,0,0,0,0,2147124123,2147771995,2147576137,2147568813,3541,3,13,49403
1346055760,5810,1027.9399414062500000,35.2380104064941400,566.4290771484375000,4.2864718437194820,56.3098411560058600,55,97,102,78,83,15531,0,0,0,0,2147123437,2147776859,2147570834,2147569929,124,3,13,14119
1346059360,5809,1029.7399902343750000,35.1884994506835940,566.2952270507812000,4.2906317710876465,56.3149795532226560,55,98,101,77,82,15537,0,0,0,0,2147122294,2147771593,2147572644,2147570258,248,3,13,24202
1346062960,5807,1021.5999755859375000,38.0423889160156250,566.8342895507812000,4.2738947868347170,55.8757591247558600,55,99,102,78,83,15538,0,0,0,0,2147121481,2147774930,2147576310,2147569206,473,3,13,16342
1346066560,5810,1021.5399780273438000,38.3267517089843750,567.6624755859375000,4.2481770515441895,55.8450088500976560,55,99,101,78,83,15539,0,0,0,0,2147122441,2147770660,2147574747,2147569856,198,3,13,14256
1346070160,5807,1023.8400268554688000,39.6124801635742200,566.7930908203125000,4.2751731872558590,55.6382217407226560,55,98,100,78,83,15537,0,0,0,0,2147122102,2147776091,2147576621,2147569161,190,3,13,60243
1346073760,5809,1028.6099853515625000,39.2876014709472660,566.7525024414062000,4.2764339447021480,55.6882591247558600,56,101,100,79,82,15537,0,0,0,0,2147122560,2147775670,2147578752,2147569810,410,3,13,34831
1346077360,5811,1025.0500488281250000,39.2947616577148440,567.1320800781250000,4.2646470069885250,55.6926994323730500,55,98,102,79,83,15535,0,0,0,0,2147125220,2147769590,2147573001,2147566692,118,3,13,30718
1346080960,5808,1027.1800537109375000,39.3570289611816400,566.6068115234375000,4.2809581756591800,55.6769294738769500,55,99,101,77,82,15538,0,0,0,0,2147120576,2147775286,2147575012,2147571163,3577,3,13,1420
1346084560,5808,1023.5700073242188000,38.6462707519531250,567.0026245117188000,4.2686691284179690,55.7854003906250000,55,99,100,78,82,15537,0,0,0,0,2147126025,2147773869,2147573421,2147570907,156,3,13,37561
1346088160,5810,1028.4599609375000000,39.2477416992187500,566.8823852539062000,4.2724018096923830,55.6976585388183600,54,98,101,79,83,15537,0,0,0,0,2147124297,2147770020,2147576365,2147571520,30,3,13,61276
1346091760,5808,1027.7700195312500000,38.7591781616210940,567.0968017578125000,4.2657427787780760,55.7751197814941400,55,98,100,78,82,15536,0,0,0,0,2147121481,2147774217,2147575140,2147569627,78,3,12,9743
1346095360,5809,1032.9899902343750000,38.4211807250976560,566.3455200195312000,4.2890720367431640,55.8176193237304700,55,99,101,78,82,15533,0,0,0,0,2147120740,2147771081,2147576429,2147573129,263,3,13,10823
1346095556,5808,1032.6300048828125000,38.3689193725585940,566.3156127929688000,4.2899990081787110,55.8267288208007800,55,98,100,78,83,15536,0,0,0,0,2147122267,2147774372,2147573056,2147570304,276,3,13,9809
